Lid_Strength_Index
1 2 2 2 1 1 2 1 1 1 1 1 0 2 2 2 1 0 0 -0 -2 -2 -2 -2 -1 -2 -2 -2 -1 -2 -2 -2 -1 -1 -0 -0 0 1 1 1 1 1 1
1 1 2 2 2 1 1 1 0 0 2 2 0 1 2 2 1 0 -0 -0 -2 -2 -2 -2 -2 -2 -2 -2 -2 -2 -2 -1 -1 -0 0 1 1 1 2 2 2 2 2
1 1 1 2 2 2 2 0 0 1 3 1 1 2 2 2 1 0 -0 1 -1 -1 -2 -2 -2 -2 -2 -2 -2 -2 -1 -0 -0 1 1 1 1 2 2 2 2 2 2
1 1 1 2 2 2 1 1 1 1 3 3 3 2 1 1 1 0 -0 0 -0 -0 -1 -2 -2 -2 -2 -1 -2 -2 -0 0 1 1 1 1 2 2 2 2 3 3 3
0 0 1 1 1 2 1 2 2 2 3 2 3 3 2 1 1 0 0 1 0 -0 -0 -1 -1 -2 -2 -2 -2 -1 0 1 1 1 1 2 2 2 3 3 3 3 3
0 0 1 2 1 2 2 2 3 3 4 3 2 3 3 3 2 1 1 1 2 0 0 1 1 1 -1 -1 -1 -1 0 1 1 1 1 2 2 3 3 3 3 4 4
1 0 1 1 2 2 1 1 2 3 4 3 4 5 4 4 4 2 1 3 3 2 1 2 2 2 1 -0 0 0 1 1 1 1 2 2 3 3 3 4 4 4 4
1 1 0 1 1 2 1 2 2 3 3 3 5 7 8 6 5 4 3 3 4 3 3 2 2 2 2 3 2 1 1 1 1 1 2 3 3 4 4 4 4 5 5
1 1 1 1 2 1 2 2 2 3 3 3 4 6 8 9 8 6 5 4 5 4 3 3 3 3 3 3 2 2 1 1 1 1 2 3 3 4 4 5 5 5 5
1 1 1 1 1 1 1 1 1 2 2 4 4 5 5 7 9 11 7 5 5 6 5 4 3 3 4 4 4 4 2 1 2 1 2 3 4 4 5 5 5 6 6
2 1 0 1 1 1 1 1 2 2 2 3 3 3 5 6 6 8 10 9 5 5 6 5 4 4 4 5 5 4 2 2 1 1 1 2 3 4 5 5 5 6 6
3 1 1 1 1 1 1 1 1 2 2 2 2 3 3 4 6 7 8 8 7 8 6 7 7 5 5 6 5 4 3 2 2 2 1 1 2 3 5 5 6 6 7
1 1 1 1 1 0 1 1 1 2 2 2 2 3 2 3 4 4 5 7 8 8 8 7 7 7 7 7 7 5 4 3 2 3 2 2 3 3 5 6 7 7 7
1 1 1 1 1 1 1 1 1 1 1 1 2 3 2 2 2 3 4 5 8 9 8 8 7 8 9 9 8 5 6 4 3 3 3 3 4 4 5 7 7 7 7
1 1 1 1 1 1 1 1 1 1 1 1 1 1 2 2 2 2 3 4 5 7 7 8 9 8 10 10 8 7 8 4 3 4 4 4 4 4 6 7 7 7 7
3 2 2 1 1 1 1 1 1 1 1 1 1 1 1 1 2 3 3 3 4 5 7 7 6 8 9 9 9 9 8 6 4 4 4 5 4 5 6 7 7 7 7
5 4 3 2 2 2 1 1 1 1 1 1 1 1 1 1 2 2 2 3 4 4 6 7 6 8 9 10 10 10 10 8 6 5 5 5 5 6 7 7 7 7 7
5 5 4 4 1 2 2 2 2 1 2 2 2 2 2 1 2 1 2 3 3 4 5 9 8 8 8 9 9 11 11 9 10 6 5 5 6 6 7 7 7 7 7
6 5 5 5 4 2 2 1 2 2 2 2 1 1 1 1 2 1 2 3 3 4 4 8 10 9 8 9 11 11 12 12 11 9 6 6 6 8 8 8 8 7 8
7 6 6 5 5 4 2 2 2 2 2 2 2 1 1 1 2 2 2 3 3 4 4 7 9 9 8 9 10 12 14 12 13 11 8 8 8 6 7 7 9 9 9
8 7 7 6 6 5 3 2 2 2 2 2 2 2 2 2 3 2 2 2 2 4 5 7 10 10 9 11 11 11 12 14 15 14 14 13 12 11 10 7 9 8 9
9 8 8 7 7 6 5 4 3 3 3 3 3 3 2 4 4 3 3 2 2 3 6 6 8 9 10 10 10 11 13 15 16 13 14 15 14 13 11 12 9 9 9
10 10 9 8 8 7 5 5 4 3 3 3 3 3 3 3 4 2 3 4 4 4 4 5 8 8 10 9 9 11 12 13 15 14 15 15 14 13 12 11 9 9 9
10 10 10 9 8 7 6 5 5 5 4 4 4 4 4 4 4 4 4 4 4 4 5 5 6 7 8 9 9 10 11 13 13 13 14 16 14 15 14 13 10 10 10
11 11 10 10 9 8 7 6 6 6 5 5 5 5 5 5 5 5 5 6 6 6 6 6 7 6 7 8 9 11 13 13 15 15 14 15 16 16 15 15 14 11 11
11 11 11 10 8 8 7 6 6 6 6 6 7 7 6 6 6 6 6 6 8 10 8 8 8 8 8 8 8 10 12 13 15 15 14 15 16 16 17 16 15 13 13